GW0912 Weather Reports


Display with metric or nautical units.
time (UTC)temp
F
wind
direction
speed
MPH
gust
MPH
rain 1hr
in
rain 24hr
in
rain mn
in
humidity
%
barometer
mb
20260509123906 69 157 0.0 0.0 0.00 0.00 0.00 97 1016.1
20260509123403 69 157 0.0 1.0 0.00 0.00 0.00 98 1016.0
20260509122858 69 270 0.0 0.0 0.00 0.00 0.00 99 1016.3
20260509122355 68 172 0.0 0.0 0.00 0.00 0.00 99 1016.2
20260509121852 68 306 0.0 0.0 0.00 0.00 0.00 99 1016.1
20260509121349 68 306 0.0 1.0 0.00 0.00 0.00 99 1016.2
20260509120848 67 337 0.0 1.0 0.00 0.00 0.00 99 1016.1
20260509120345 67 352 0.0 0.0 0.00 0.00 0.00 99 1016.2
20260509115843 66 261 0.0 0.0 0.00 0.00 0.00 99 1016.0
20260509115340 65 352 0.0 1.0 0.00 0.00 0.00 99 1016.0
20260509114838 65 254 0.0 1.0 0.00 0.00 0.00 99 1016.1
20260509114336 65 331 0.0 1.0 0.00 0.00 0.00 99 1015.8
20260509113835 64 337 0.0 0.0 0.00 0.00 0.00 99 1015.7
20260509113331 64 337 0.0 0.0 0.00 0.00 0.00 99 1015.9
20260509112828 64 337 0.0 0.0 0.00 0.00 0.00 99 1015.9
20260509112326 64 337 0.0 0.0 0.00 0.00 0.00 99 1015.8
20260509111822 64 337 0.0 0.0 0.00 0.00 0.00 99 1015.5
20260509111320 63 270 0.0 0.0 0.00 0.00 0.00 99 1015.4
20260509110817 63 270 0.0 1.0 0.00 0.00 0.00 99 1015.7
20260509110313 63 286 0.0 0.0 0.00 0.00 0.00 99 1015.7
20260509105812 63 294 0.0 0.0 0.00 0.00 0.00 99 1015.5
20260509105309 63 294 0.0 0.0 0.00 0.00 0.00 99 1015.4
20260509104806 63 294 0.0 0.0 0.00 0.00 0.00 99 1015.2
20260509104302 63 294 0.0 0.0 0.00 0.00 0.00 99 1015.3
20260509103800 63 279 0.0 0.0 0.00 0.00 0.00 99 1015.2
20260509103257 63 270 0.0 0.0 0.00 0.00 0.00 99 1015.1
20260509102756 63 270 0.0 0.0 0.00 0.00 0.00 99 1015.1
20260509102253 63 270 0.0 0.0 0.00 0.00 0.00 99 1014.9
20260509101749 63 279 0.0 0.0 0.00 0.00 0.00 99 1015.1
20260509101245 63 279 0.0 0.0 0.00 0.00 0.00 99 1015.0
20260509100743 64 279 0.0 0.0 0.00 0.00 0.00 99 1015.0
20260509100240 64 279 0.0 0.0 0.00 0.00 0.00 99 1015.0
20260509095736 64 279 0.0 0.0 0.00 0.00 0.00 99 1015.0
20260509095234 64 279 0.0 0.0 0.00 0.00 0.00 99 1015.0
20260509094731 64 294 0.0 0.0 0.00 0.00 0.00 99 1015.2
20260509094227 64 294 0.0 0.0 0.00 0.00 0.00 99 1015.2
20260509093725 64 279 0.0 0.0 0.00 0.00 0.00 99 1015.0
20260509093222 64 279 0.0 0.0 0.00 0.00 0.00 98 1015.0
20260509092721 64 279 0.0 0.0 0.00 0.00 0.00 98 1015.3
20260509092219 64 279 0.0 0.0 0.00 0.00 0.00 98 1015.2
20260509091716 64 279 0.0 0.0 0.00 0.00 0.00 98 1015.0
20260509091211 64 279 0.0 0.0 0.00 0.00 0.00 98 1015.3
20260509090710 64 279 0.0 0.0 0.00 0.00 0.00 98 1015.4
20260509090206 64 279 0.0 0.0 0.00 0.00 0.00 98 1015.3
20260509085704 64 279 0.0 0.0 0.00 0.00 0.00 98 1015.3
20260509085201 64 120 0.0 0.0 0.00 0.00 0.00 98 1015.2
20260509084658 64 270 0.0 0.0 0.00 0.00 0.00 98 1015.1
20260509084154 64 270 0.0 0.0 0.00 0.00 0.00 97 1015.2
20260509083653 64 131 0.0 0.0 0.00 0.00 0.00 97 1015.0
20260509083148 64 123 2.0 4.0 0.00 0.00 0.00 98 1015.0
20260509082646 64 270 0.0 0.0 0.00 0.00 0.00 98 1015.6
20260509082142 64 270 0.0 0.0 0.00 0.00 0.00 97 1015.6
20260509081640 64 270 0.0 1.0 0.00 0.00 0.00 97 1015.6
20260509081137 64 120 0.0 0.0 0.00 0.00 0.00 97 1015.6
20260509080635 64 120 0.0 0.0 0.00 0.00 0.00 97 1015.4
20260509080133 64 120 0.0 0.0 0.00 0.00 0.00 97 1015.3
20260509075631 64 120 0.0 0.0 0.00 0.00 0.00 97 1015.7
20260509075128 64 120 0.0 2.0 0.00 0.00 0.00 97 1015.8
20260509074624 64 279 0.0 0.0 0.00 0.00 0.00 97 1015.8
20260509074121 64 279 0.0 0.0 0.00 0.00 0.00 97 1015.9
20260509073618 64 279 0.0 1.0 0.00 0.00 0.00 97 1015.8
20260509073114 64 258 0.0 0.0 0.00 0.00 0.00 97 1015.3
20260509072611 64 291 0.0 0.0 0.00 0.00 0.00 97 1015.2
20260509072108 64 291 0.0 0.0 0.00 0.00 0.00 97 1015.3
20260509071604 64 8 0.0 0.0 0.00 0.00 0.00 97 1015.4
20260509071102 64 276 0.0 2.0 0.00 0.00 0.00 96 1015.4
20260509070559 64 264 0.0 2.0 0.00 0.00 0.00 96 1015.4
20260509070055 65 99 0.0 1.0 0.00 0.00 0.00 96 1015.6
20260509065550 64 291 0.0 0.0 0.00 0.00 0.00 96 1015.6
20260509065047 65 291 0.0 1.0 0.00 0.00 0.00 95 1015.9
20260509064544 65 331 1.0 1.0 0.00 0.00 0.00 95 1015.8
20260509064043 65 132 2.0 3.0 0.00 0.00 0.00 95 1015.5
20260509063538 65 112 0.0 2.0 0.00 0.00 0.00 96 1016.2
20260509063035 65 132 0.0 2.0 0.00 0.00 0.00 96 1016.7
20260509062532 65 276 3.0 3.0 0.00 0.00 0.00 96 1017.1
20260509062030 65 270 0.0 3.0 0.00 0.00 0.00 95 1016.3
20260509061526 65 81 0.0 0.0 0.00 0.00 0.00 95 1016.1
20260509061024 65 106 1.0 2.0 0.00 0.00 0.00 95 1016.2
20260509060521 65 257 0.0 2.0 0.00 0.00 0.00 95 1016.6
20260509060017 65 145 1.0 2.0 0.00 0.00 0.00 95 1016.4
20260509055512 65 261 0.0 0.0 0.00 0.00 0.00 95 1016.7
20260509055009 64 261 0.0 1.0 0.00 0.00 0.00 95 1016.9
20260509054505 65 300 0.0 1.0 0.00 0.00 0.00 95 1016.8
20260509054004 65 279 0.0 0.0 0.00 0.00 0.00 94 1016.3
20260509053502 65 157 1.0 2.0 0.00 0.00 0.00 94 1016.4
20260509052958 64 81 0.0 2.0 0.00 0.00 0.00 94 1016.5
20260509052456 64 90 0.0 2.0 0.00 0.00 0.00 94 1016.7
20260509051954 64 106 0.0 0.0 0.00 0.00 0.00 94 1017.3
20260509051451 64 99 0.0 4.0 0.00 0.00 0.00 94 1016.9
20260509050948 64 123 2.0 3.0 0.00 0.00 0.00 95 1017.3
20260509050445 64 279 0.0 0.0 0.00 0.00 0.00 95 1017.6
20260509045941 64 279 0.0 0.0 0.00 0.00 0.00 95 1017.7
20260509045439 64 279 0.0 0.0 0.00 0.00 0.00 95 1017.6
20260509044935 64 279 0.0 0.0 0.00 0.00 0.00 96 1018.0
20260509044434 64 278 0.0 0.0 0.00 0.00 0.00 96 1018.0
20260509043931 64 282 2.0 2.0 0.00 0.00 0.00 95 1018.0
20260509043426 64 285 1.0 2.0 0.00 0.00 0.00 95 1017.8
20260509042922 64 270 0.0 1.0 0.00 0.00 0.00 95 1017.4
20260509042419 64 117 0.0 0.0 0.00 0.00 0.00 95 1017.2
20260509041915 64 90 0.0 1.0 0.00 0.00 0.00 95 1017.6
20260509041412 63 151 0.0 1.0 0.00 0.00 0.00 95 1017.9
20260509040910 63 270 0.0 0.0 0.00 0.00 0.00 95 1018.0
20260509040408 63 270 0.0 0.0 0.00 0.00 0.00 95 1018.6
20260509035905 63 286 0.0 1.0 0.00 0.00 0.00 95 1018.3
20260509035402 63 270 0.0 1.0 0.00 0.00 0.00 95 1018.4
20260509034858 63 254 0.0 0.0 0.00 0.00 0.00 95 1018.3
20260509034356 63 270 0.0 1.0 0.00 0.00 0.00 95 1018.4
20260509033853 63 270 0.0 0.0 0.00 0.00 0.00 95 1018.4
20260509033350 63 270 0.0 0.0 0.00 0.00 0.00 95 1018.6
20260509032846 63 270 0.0 0.0 0.00 0.00 0.00 95 1018.5
20260509032343 63 270 0.0 0.0 0.00 0.00 0.00 94 1018.3
20260509031842 63 270 0.0 0.0 0.00 0.00 0.00 94 1018.5
20260509031339 63 270 0.0 1.0 0.00 0.00 0.00 94 1018.7
20260509030836 63 270 0.0 0.0 0.00 0.00 0.00 94 1018.4
20260509030334 63 270 0.0 0.0 0.00 0.00 0.00 94 1018.6
20260509025831 63 270 0.0 0.0 0.00 0.00 0.00 94 1018.7
20260509025326 63 270 0.0 1.0 0.00 0.00 0.00 94 1018.7
20260509024821 63 270 0.0 1.0 0.00 0.00 0.00 94 1018.4
20260509024318 63 111 0.0 0.0 0.00 0.00 0.00 94 1018.1
20260509023815 63 270 0.0 0.0 0.00 0.00 0.00 94 1018.2
20260509023313 63 279 0.0 0.0 0.00 0.00 0.00 94 1018.3
20260509022809 63 270 0.0 0.0 0.00 0.00 0.00 93 1018.2
20260509022307 63 270 0.0 0.0 0.00 0.00 0.00 93 1018.3
20260509021803 63 270 0.0 0.0 0.00 0.00 0.00 93 1018.4
20260509021300 63 270 0.0 0.0 0.00 0.00 0.00 93 1018.3
20260509020758 63 270 0.0 0.0 0.00 0.00 0.00 92 1018.3
20260509020255 63 270 0.0 0.0 0.00 0.00 0.00 92 1018.3
20260509015753 63 270 0.0 0.0 0.00 0.00 0.00 92 1018.3
20260509015251 64 270 0.0 0.0 0.00 0.00 0.00 92 1018.2
20260509014747 64 270 0.0 1.0 0.00 0.00 0.00 91 1018.3
20260509014244 64 270 0.0 1.0 0.00 0.00 0.00 91 1018.0
20260509013741 64 278 1.0 1.0 0.00 0.00 0.00 91 1018.1
20260509013236 64 270 0.0 0.0 0.00 0.00 0.00 90 1018.1
20260509012733 64 279 0.0 0.0 0.00 0.00 0.00 90 1018.1
20260509012230 64 279 0.0 0.0 0.00 0.00 0.00 90 1018.0
20260509011727 64 279 0.0 0.0 0.00 0.00 0.00 90 1018.1
20260509011225 64 279 0.0 0.0 0.00 0.00 0.00 89 1018.0
20260509010723 64 279 0.0 0.0 0.00 0.00 0.00 89 1017.9
20260509010219 64 279 0.0 0.0 0.00 0.00 0.00 88 1017.9
20260509005716 64 286 0.0 1.0 0.00 0.00 0.00 87 1017.9
20260509005213 65 270 0.0 0.0 0.00 0.00 0.00 87 1017.9
20260509004708 65 117 0.0 0.0 0.00 0.00 0.00 86 1018.0
20260509004206 65 117 0.0 2.0 0.00 0.00 0.00 85 1017.9
20260509003704 65 133 0.0 0.0 0.00 0.00 0.00 85 1017.6
20260509003201 65 171 2.0 2.0 0.00 0.00 0.00 85 1017.6
20260509002658 65 157 0.0 2.0 0.00 0.00 0.00 85 1017.5
20260509002155 66 105 0.0 3.0 0.00 0.00 0.00 84 1017.5
20260509001653 66 135 0.0 2.0 0.00 0.00 0.00 84 1017.5
20260509001148 66 99 0.0 2.0 0.00 0.00 0.00 84 1017.8
20260509000647 66 90 1.0 3.0 0.00 0.00 0.00 83 1017.9
20260509000144 66 103 0.0 3.0 0.00 0.00 0.00 83 1017.4
20260508235641 66 121 0.0 4.0 0.00 0.00 0.00 83 1017.4
20260508235137 66 103 1.0 6.0 0.00 0.00 0.00 82 1017.2
20260508234635 66 130 0.0 7.0 0.00 0.00 0.00 82 1017.3
20260508234131 66 140 2.0 3.0 0.00 0.00 0.00 82 1017.2
20260508233631 66 144 0.0 3.0 0.00 0.00 0.00 82 1017.3
20260508233128 66 90 0.0 3.0 0.00 0.00 0.00 81 1017.4
20260508232625 66 83 1.0 3.0 0.00 0.00 0.00 81 1017.5
20260508232121 66 114 0.0 1.0 0.00 0.00 0.00 81 1017.4
20260508231619 66 123 0.0 2.0 0.00 0.00 0.00 81 1017.5
20260508231116 66 150 0.0 3.0 0.00 0.00 0.00 80 1017.5
20260508230612 66 135 3.0 4.0 0.00 0.00 0.00 80 1017.5
20260508230109 66 96 1.0 5.0 0.00 0.00 0.00 80 1017.5
20260508225607 67 114 1.0 2.0 0.00 0.00 0.00 80 1017.3
20260508225103 67 234 1.0 5.0 0.00 0.00 0.00 80 1017.3
20260508224601 67 131 2.0 4.0 0.00 0.00 0.00 80 1017.5
20260508224058 67 90 0.0 5.0 0.00 0.00 0.00 79 1017.3
20260508223556 67 69 1.0 3.0 0.00 0.00 0.00 78 1017.3
20260508223053 67 90 0.0 5.0 0.00 0.00 0.00 78 1017.1
20260508222550 67 121 2.0 4.0 0.00 0.00 0.00 78 1017.3
20260508222047 67 112 2.0 4.0 0.00 0.00 0.00 77 1017.3
20260508221543 67 90 0.0 9.0 0.00 0.00 0.00 77 1017.5
20260508221039 67 111 1.0 5.0 0.00 0.00 0.00 76 1017.6
20260508220536 67 110 2.0 6.0 0.00 0.00 0.00 77 1017.4
20260508220032 68 101 0.0 4.0 0.00 0.00 0.00 76 1017.4
20260508215529 68 96 1.0 4.0 0.00 0.00 0.00 75 1017.4
20260508215026 68 103 3.0 9.0 0.00 0.00 0.00 74 1017.3
20260508214524 68 188 4.0 7.0 0.00 0.00 0.00 71 1017.1
20260508214019 68 14 1.0 5.0 0.00 0.00 0.00 72 1017.4
20260508213517 68 108 2.0 5.0 0.00 0.00 0.00 74 1017.4
20260508213013 68 135 4.0 6.0 0.00 0.00 0.00 74 1017.6
20260508212509 68 125 4.0 6.0 0.00 0.00 0.00 74 1017.6
20260508212006 68 120 5.0 7.0 0.00 0.00 0.00 75 1017.7
20260508211501 68 111 3.0 7.0 0.00 0.00 0.00 74 1017.6
20260508210958 68 144 5.0 10.0 0.00 0.00 0.00 74 1017.6
20260508210454 68 135 2.0 5.0 0.00 0.00 0.00 74 1017.3
20260508205951 68 45 0.0 4.0 0.00 0.00 0.00 75 1017.4
20260508205448 68 130 3.0 5.0 0.00 0.00 0.00 74 1017.3
20260508204944 68 126 3.0 5.0 0.00 0.00 0.00 74 1017.5
20260508204442 68 116 3.0 7.0 0.00 0.00 0.00 73 1017.4
20260508203937 68 143 3.0 9.0 0.00 0.00 0.00 73 1017.7
20260508203434 68 161 2.0 6.0 0.00 0.00 0.00 72 1017.3
20260508202929 68 331 0.0 5.0 0.00 0.00 0.00 70 1017.2
20260508202427 68 122 3.0 6.0 0.00 0.00 0.00 72 1017.3
20260508201924 69 170 2.0 9.0 0.00 0.00 0.00 71 1017.4
20260508201421 69 138 7.0 11.0 0.00 0.00 0.00 71 1017.6
20260508200918 69 132 4.0 8.0 0.00 0.00 0.00 71 1017.9
20260508200415 69 116 3.0 7.0 0.00 0.00 0.00 69 1017.8
20260508195910 69 128 4.0 9.0 0.00 0.00 0.00 67 1017.9
20260508195407 70 137 4.0 5.0 0.00 0.00 0.00 67 1017.9
20260508194903 70 122 5.0 10.0 0.00 0.00 0.00 69 1018.1
20260508194400 69 216 2.0 9.0 0.00 0.00 0.00 69 1018.3
20260508193857 69 142 2.0 13.0 0.00 0.00 0.00 69 1018.0
20260508193354 70 116 4.0 14.0 0.00 0.00 0.00 68 1018.0
20260508192850 70 107 5.0 10.0 0.00 0.00 0.00 69 1017.8
20260508192347 69 118 7.0 13.0 0.00 0.00 0.00 71 1017.9
20260508191844 69 125 6.0 11.0 0.00 0.00 0.00 69 1017.9
20260508191342 70 222 3.0 7.0 0.00 0.00 0.00 68 1018.1
20260508190838 70 56 2.0 12.0 0.00 0.00 0.00 68 1017.8
20260508190335 70 102 3.0 7.0 0.00 0.00 0.00 68 1018.0
20260508185831 70 153 0.0 10.0 0.00 0.00 0.00 68 1018.1
20260508185329 71 114 4.0 12.0 0.00 0.00 0.00 67 1018.2
20260508184826 72 110 3.0 5.0 0.00 0.00 0.00 66 1018.1
20260508184323 72 119 8.0 9.0 0.00 0.00 0.00 66 1018.1
20260508183820 74 112 3.0 7.0 0.00 0.00 0.00 63 1018.1
20260508183317 74 158 4.0 11.0 0.00 0.00 0.00 63 1018.1
20260508182812 74 195 1.0 5.0 0.00 0.00 0.00 63 1018.4
20260508182310 73 119 2.0 10.0 0.00 0.00 0.00 63 1018.3
20260508181805 72 236 3.0 12.0 0.00 0.00 0.00 64 1018.4
20260508181302 72 230 3.0 11.0 0.00 0.00 0.00 63 1018.4
20260508180759 74 123 5.0 5.0 0.00 0.00 0.00 63 1018.4
20260508180256 73 141 0.0 7.0 0.00 0.00 0.00 63 1018.5
20260508175752 72 139 4.0 9.0 0.00 0.00 0.00 63 1018.6
20260508175249 73 137 7.0 9.0 0.00 0.00 0.00 61 1018.8
20260508174747 73 148 5.0 9.0 0.00 0.00 0.00 62 1018.6
20260508174244 73 93 4.0 8.0 0.00 0.00 0.00 63 1018.8
20260508173741 74 132 4.0 8.0 0.00 0.00 0.00 61 1018.6
20260508173236 73 51 2.0 8.0 0.00 0.00 0.00 61 1018.9
20260508172733 74 118 6.0 11.0 0.00 0.00 0.00 62 1018.8
20260508172230 74 330 2.0 7.0 0.00 0.00 0.00 60 1018.7
20260508171727 75 297 1.0 6.0 0.00 0.00 0.00 58 1018.9
20260508171223 75 99 0.0 4.0 0.00 0.00 0.00 56 1019.1
20260508170720 75 203 0.0 3.0 0.00 0.00 0.00 56 1019.0
20260508170218 73 82 0.0 6.0 0.00 0.00 0.00 58 1018.8
20260508165714 73 137 4.0 8.0 0.00 0.00 0.00 56 1018.7
20260508165212 74 138 5.0 5.0 0.00 0.00 0.00 53 1018.9
20260508164708 76 334 0.0 4.0 0.00 0.00 0.00 55 1018.9
20260508164205 76 194 0.0 3.0 0.00 0.00 0.00 55 1018.9
20260508163703 75 345 0.0 5.0 0.00 0.00 0.00 56 1019.0
20260508163200 75 126 0.0 4.0 0.00 0.00 0.00 57 1019.3
20260508162655 73 61 3.0 3.0 0.00 0.00 0.00 59 1019.3
20260508162153 72 140 2.0 8.0 0.00 0.00 0.00 57 1019.3
20260508161649 73 23 0.0 5.0 0.00 0.00 0.00 55 1019.5
20260508161147 73 140 8.0 8.0 0.00 0.00 0.00 55 1019.8
20260508160645 75 106 2.0 2.0 0.00 0.00 0.00 56 1019.8
20260508160142 75 114 0.0 3.0 0.00 0.00 0.00 55 1019.9
20260508155639 75 332 2.0 3.0 0.00 0.00 0.00 57 1019.7
20260508155136 74 270 1.0 5.0 0.00 0.00 0.00 58 1019.9
20260508154633 75 346 0.0 4.0 0.00 0.00 0.00 58 1019.9
20260508154130 73 213 3.0 3.0 0.00 0.00 0.00 58 1020.0
20260508153627 74 309 2.0 5.0 0.00 0.00 0.00 58 1020.2
20260508153124 74 339 2.0 5.0 0.00 0.00 0.00 59 1020.1
20260508152620 73 165 0.0 2.0 0.00 0.00 0.00 59 1020.0
20260508152115 72 162 1.0 7.0 0.00 0.00 0.00 57 1020.1
20260508151613 72 180 0.0 5.0 0.00 0.00 0.00 56 1020.1
20260508151110 71 243 3.0 4.0 0.00 0.00 0.00 61 1020.0
20260508150607 71 262 0.0 3.0 0.00 0.00 0.00 61 1020.0
20260508145559 70 154 3.0 4.0 0.00 0.00 0.00 60 1019.9
20260508145056 69 286 0.0 9.0 0.00 0.00 0.00 62 1019.9
20260508144554 70 315 2.0 5.0 0.00 0.00 0.00 62 1020.0
20260508144050 70 157 6.0 6.0 0.00 0.00 0.00 60 1019.9
20260508143548 70 0 2.0 4.0 0.00 0.00 0.00 64 1020.3
20260508143045 70 324 3.0 4.0 0.00 0.00 0.00 62 1020.0
20260508142542 69 339 0.0 4.0 0.00 0.00 0.00 66 1019.8
20260508142038 68 137 4.0 5.0 0.00 0.00 0.00 66 1019.7
20260508141535 68 286 1.0 5.0 0.00 0.00 0.00 69 1019.8
20260508141033 68 139 2.0 8.0 0.00 0.00 0.00 71 1019.8
20260508140530 67 125 3.0 6.0 0.00 0.00 0.00 70 1019.8
20260508140026 66 157 3.0 3.0 0.00 0.00 0.00 72 1019.7
20260508135521 66 217 2.0 3.0 0.00 0.00 0.00 74 1019.8
20260508135018 66 328 0.0 3.0 0.00 0.00 0.00 75 1019.6
20260508134515 66 277 1.0 3.0 0.00 0.00 0.00 74 1019.6
20260508134012 66 171 2.0 4.0 0.00 0.00 0.00 75 1019.5
20260508133509 65 166 5.0 5.0 0.00 0.00 0.00 75 1019.6
20260508133006 65 299 0.0 3.0 0.00 0.00 0.00 78 1019.4
20260508132504 65 357 0.0 4.0 0.00 0.00 0.00 80 1019.3
20260508132000 64 157 0.0 2.0 0.00 0.00 0.00 81 1019.3
20260508131455 63 346 2.0 3.0 0.00 0.00 0.00 83 1019.2
20260508130952 62 180 0.0 4.0 0.00 0.00 0.00 84 1019.3
20260508130450 62 334 2.0 8.0 0.00 0.00 0.00 85 1019.2
20260508125945 62 354 1.0 4.0 0.00 0.00 0.00 86 1019.1
20260508125441 62 12 1.0 3.0 0.00 0.00 0.00 86 1019.3
20260508124939 62 342 0.0 3.0 0.00 0.00 0.00 86 1019.1
20260508124437 62 14 2.0 3.0 0.00 0.00 0.00 88 1019.1